Regional Weather Roundup
Issued by NWS Little Rock, AR

Home | Current Version | Previous Version | Text Only | Print | Product List | Glossary Off
Versions: 1 2 3 4 5 6 7 8 9 10 11 12 13 14 15 16 17 18 19 20 21 22 23 24 25 26 27 28

000
ASUS44 KLZK 292105
RWRLZK

WEATHER ROUNDUP FOR ARKANSAS
NATIONAL WEATHER SERVICE LITTLE ROCK AR
400 PM CDT MON AUG 29 2016

NOTE: "FAIR" INDICATES FEW OR NO CLOUDS BELOW 12,000 FEET WITH NO
SIGNIFICANT WEATHER AND/OR OBSTRUCTIONS TO VISIBILITY.

ARZ001-003-010-029-292200-
NORTHWEST ARKANSAS

CITY           SKY/WX    TMP DP  RH WIND       PRES   REMARKS
FAYETTEVILLE   MOSUNNY   90  66  45 E9        30.11F HX  92
FORT SMITH     MOSUNNY   93  68  43 E12       30.03F HX  97
HARRISON       CLOUDY    82  73  74 SW3       30.14F HX  87
BENTONVILLE    CLOUDY    75  64  69 E16G29    30.15R
ROGERS         HVY RAIN  70  66  87 SE15      30.15R FOG
SILOAM SPGS    MOSUNNY   90  64  43 E5        30.10S HX  91
HIGHFILL       HVY RAIN  76  72  87 E23G30    30.14R FOG
SPRINGDALE     MOSUNNY   77  70  78 NE12G23   30.16R
$$

ARZ004-005-016-292200-
NORTH CENTRAL ARKANSAS

CITY           SKY/WX    TMP DP  RH WIND       PRES   REMARKS
BATESVILLE     PTSUNNY   90  75  62 E8        30.07F HX 100
FLIPPIN        PTSUNNY   91  70  49 NE6       30.08F HX  97
MTN HOME       LGT RAIN  87  73  62 E6        30.10F HX  94
$$

ARZ040-041-292200-
WEST CENTRAL ARKANSAS

CITY           SKY/WX    TMP DP  RH WIND       PRES   REMARKS
MENA           MOSUNNY   91  70  49 E6        30.08S HX  97
MOUNT IDA      SUNNY     92  68  45 E6        30.04F HX  96
$$

ARZ009-017-025-026-028-292200-
NORTHEAST ARKANSAS

CITY           SKY/WX    TMP DP  RH WIND       PRES   REMARKS
JONESBORO      MOSUNNY   91  73  55 NE13G20   30.06F HX  99
NEWPORT        CLOUDY    91  77  63 NE10      30.06F HX 104
WALNUT RIDGE   MOSUNNY   91  75  59 NE12      30.06F HX 102
BLYTHEVILLE    SUNNY     91  76  61 NE10      30.07F HX 103
NW BLYTHEVILLE MOSUNNY   91  75  59 NE10      30.06  HX 102
$$

ARZ022-023-033-042-044-292200-
CENTRAL ARKANSAS

CITY           SKY/WX    TMP DP  RH WIND       PRES   REMARKS
LITTLE ROCK    PTSUNNY   94  72  48 NE15      30.04F HX 102
N LITTLE ROCK    N/A     88  73  60 E9        30.01F HX  96
JACKSONVILLE   CLOUDY    92  76  60 CALM      30.04F HX 105
SEARCY         PTSUNNY   92  78  63 NE8       30.06F HX 107
HOT SPRINGS    MOSUNNY   89  71  55 E9        30.04F HX  95
RUSSELLVILLE   TSTM      77  73  87 S7        30.09R FOG
$$

ARZ036-292200-
EAST ARKANSAS

CITY           SKY/WX    TMP DP  RH WIND       PRES   REMARKS
WEST MEMPHIS   CLOUDY    83  72  69 CALM      30.03F HX  88
$$

ARZ050-053-066-070-073-292200-
SOUTHWEST ARKANSAS

CITY           SKY/WX    TMP DP  RH WIND       PRES   REMARKS
ARKADELPHIA    FAIR      91  74  57 NE5       30.01F HX 100
TEXARKANA      MOSUNNY   90  74  59 NE9       30.00F HX  99
EL DORADO      MOSUNNY   93  70  46 NE12      30.00F HX  99
DE QUEEN       MOSUNNY   92  74  55 E8        29.99F HX 101
$$

ARZ056-057-069-292200-
SOUTHEAST ARKANSAS

CITY           SKY/WX    TMP DP  RH WIND       PRES   REMARKS
PINE BLUFF     MOSUNNY   94  74  52 E13G21    30.02F THUNDER HX 104
STUTTGART      MOSUNNY   91  73  55 NE13      30.03F HX 100
MONTICELLO     MOSUNNY   98  70  40 E8        29.99F HX 105

$$






USA.gov is the U.S. government's official web portal to all federal, state and local government web resources and services.